This is the latest recevied weather packets stored in our database for station/object K5BOU. If no packets are shown the sender has not sent any weather packets the latest 10 day(s).
| Time | Temp. | Humidity | Pressure | Rain* | Wind** | Luminosity | Snow |
|---|---|---|---|---|---|---|---|
| 1777758623 | 25° C | 53% | 1015.9 hPa | 0 mm | - | 220 W/m² | - |
| 1777758320 | 25° C | 52% | 1016.1 hPa | 0 mm | - | 480 W/m² | - |
| 1777758018 | 25° C | 50% | 1016 hPa | 0 mm | - | 497 W/m² | - |
| 1777757714 | 25° C | 50% | 1016.1 hPa | 0 mm | - | 505 W/m² | - |
| 1777757412 | 25° C | 51% | 1016.1 hPa | 0 mm | - | 519 W/m² | - |
| 1777757111 | 25° C | 51% | 1016.2 hPa | 0 mm | - | 351 W/m² | - |
| 1777756808 | 25° C | 51% | 1016.1 hPa | 0 mm | - | 523 W/m² | - |
| 1777756503 | 25° C | 51% | 1016.1 hPa | 0 mm | - | 565 W/m² | - |
| 1777756201 | 25° C | 52% | 1016.2 hPa | 0 mm | - | 558 W/m² | - |
| 1777755897 | 25° C | 52% | 1016.3 hPa | 0 mm | - | 564 W/m² | - |
| 1777755595 | 25° C | 51% | 1016.4 hPa | 0 mm | - | 241 W/m² | - |
| 1777755290 | 25° C | 51% | 1016.4 hPa | 0 mm | - | 346 W/m² | - |
| 1777754988 | 25° C | 52% | 1016.4 hPa | 0 mm | - | 210 W/m² | - |
| 1777754685 | 25° C | 52% | 1016.3 hPa | 0 mm | - | 343 W/m² | - |
| 1777754383 | 24.44° C | 54% | 1016.6 hPa | 0 mm | - | 260 W/m² | - |
| 1777754080 | 25° C | 51% | 1016.4 hPa | 0 mm | - | 288 W/m² | - |
| 1777753776 | 24.44° C | 50% | 1016.5 hPa | 0 mm | - | 628 W/m² | - |
| 1777753473 | 25° C | 51% | 1016.8 hPa | 0 mm | - | 661 W/m² | - |
| 1777753171 | 24.44° C | 53% | 1016.8 hPa | 0 mm | - | 655 W/m² | - |
| 1777752866 | 24.44° C | 52% | 1016.8 hPa | 0 mm | - | 672 W/m² | - |
| 1777752564 | 24.44° C | 52% | 1016.8 hPa | 0 mm | - | 682 W/m² | - |
| 1777752259 | 24.44° C | 52% | 1016.8 hPa | 0 mm | - | 698 W/m² | - |
| 1777751957 | 24.44° C | 50% | 1017.1 hPa | 0 mm | - | 690 W/m² | - |
| 1777751654 | 24.44° C | 52% | 1017 hPa | 0 mm | - | 686 W/m² | - |
| 1777751350 | 24.44° C | 53% | 1017.3 hPa | 0 mm | - | 696 W/m² | - |
* Rain latest hour (hover to see other rain measurements)
** Current wind speed in m/s (hover to see current wind gust speed)